Location: Unspecified
(0.0000°N, 0.0000°E)
Time: 23:18:44
(UTC+00:00)

Vanguard 2 Rocket - Pass Details

Date: 14 December 2017
Orbit: 556 x 3326 km, 32.9° (Epoch: 15 January)

Event Time Altitude Azimuth Distance (km) Brightness Sun altitude
Rises 21:50:58 0° 316° (NW) 6,234 11.2 -52.0°
Enters shadow 21:57:03 10° 333° (NNW) 5,671 10.8 -53.1°
Reaches altitude 10° 21:57:08 10° 333° (NNW) 5,665 - -53.1°
Maximum altitude 22:08:38 19° 12° (NNE) 5,419 - -55.2°
Drops below altitude 10° 22:21:10 10° 51° (NE) 6,242 - -57.4°
Sets 22:28:30 0° 67° (ENE) 7,064 - -58.7°
